Location: Newark
(13.6797°N, 8.5297°E)
Time: 14:59:09
(UTC+00:00)

Courier 1B Rocket - Pass Details

Date: 24 January 2020
Orbit: 920 x 1202 km, 28.2° (Epoch: 22 February)

Event Time Altitude Azimuth Distance (km) Brightness Sun altitude
Rises 11:48:44 0° 280° (W) 3,924 8.1 56.9°
Reaches altitude 10° 11:52:02 10° 291° (WNW) 2,917 7.5 56.9°
Maximum altitude 11:57:57 28° 348° (NNW) 1,846 6.5 56.7°
Drops below altitude 10° 12:03:32 10° 45° (NE) 2,743 7.2 56.5°
Sets 12:06:33 0° 57° (ENE) 3,650 7.8 56.3°
